[Iaude] MPEC J26: 2024 JC [a=1.15,e=0.08,i=31.6,H=24.6]
    mpec at cfa.harvard.edu 
    mpec at cfa.harvard.edu
       
    Thu May  2 12:38:00 EDT 2024
    
    
  
M.P.E.C. 2024-J26                                   Issued 2024 May 2, 16:36 UT
     The Minor Planet Electronic Circulars contain information on unusual
         minor planets, routine data on comets and natural satellites,
         and occasional editorial announcements.  They are published
    on behalf of Division F of the International Astronomical Union by the
          Minor Planet Center, Smithsonian Astrophysical Observatory,
                          Cambridge, MA 02138, U.S.A.
			  
             Prepared using the Tamkin Foundation Computer Network
                              MPC at CFA.HARVARD.EDU
            URL https://www.minorplanetcenter.net/    ISSN 1523-6714
                                    2024 JC                                     
Observations:
     K24J00C* C2024 05 01.37920913 58 54.001-12 10 31.14         19.30wXEJ026F52
     K24J00C  C2024 05 01.39113013 58 39.591-12 15 23.82         19.55wXEJ026F52
     K24J00C  C2024 05 01.40302513 58 25.200-12 20 15.64         19.58wXEJ026F52
     K24J00C  C2024 05 01.47020513 57 03.977-12 47 37.25         19.21GVEJ026F52
     K24J00C  C2024 05 01.47085613 57 03.188-12 47 53.20         19.25GVEJ026F52
     K24J00C KB2024 05 01.89635413 48 56.41 -15 39 42.0          19.0 GXEJ026958
     K24J00C KB2024 05 01.90396113 48 47.22 -15 42 43.2          19.4 GXEJ026958
     K24J00C KB2024 05 01.91033813 48 39.53 -15 45 15.0          19.1 GXEJ026958
     K24J00C mC2024 05 02.17580813 43 32.779-17 29 10.21         19.86GVEJ026I52
     K24J00C mC2024 05 02.17597713 43 32.596-17 29 14.42         19.47GVEJ026I52
     K24J00C mC2024 05 02.17615613 43 32.390-17 29 18.02         19.11GVEJ026I52
     K24J00C mC2024 05 02.17632613 43 32.185-17 29 22.56         19.56GVEJ026I52
     K24J00C KC2024 05 02.60695913 35 01.490-20 10 47.57         19.7 GVEJ026474
     K24J00C KC2024 05 02.61080213 34 56.902-20 12 12.78         19.8 GVEJ026474
     K24J00C KC2024 05 02.62264113 34 42.778-20 16 34.90         18.6 GVEJ026474
     K24J00C KC2024 05 02.62648613 34 38.215-20 18 00.65         19.1 GVEJ026474
Observer details:
474 Mount John Observatory, Lake Tekapo.  Observers A. C. Gilmore, P. M.
    Kilmartin.  Measurer P. M. Kilmartin.  0.6-m f/6.3 Reflector + CCD.
958 Observatoire de Dax.  Observer P. Dupouy.  0.50-m f/4.5 Reflector + CMO.
F52 Pan-STARRS 2, Haleakala.  Observers J. Herman, T. Lowe, P. Minguez, A.
    Schultz, I. Smith.  Measurers K. Chambers, T. de Boer, J. Fairlamb, H.
    Gao, M. Huber, C.-C. Lin, E. Magnier, Y. Ramanjooloo, R. Wainscoat, R.
    Weryk.  1.8-m Ritchey-Chretien + CCD.
I52 Steward Observatory, Mt. Lemmon Station.  Observers V. F. Carvajal, G. J.
    Leonard.  Measurers T. Beuden, V. F. Carvajal, D. Fay, J. B. Fazekas, D.
    C. Fuls, A. R. Gibbs, A. D. Grauer, H. Groeller, J. K. Hogan, R. A.
    Kowalski, S. M. Larson, G. J. Leonard, D. Rankin, R. L. Seaman, F. C.
    Shelly, K. W. Wierzchos.  1.0-m prime focus + CCD.
Orbital elements:
2024 JC                                                  Earth MOID = 0.0634 AU
Epoch 2024 Mar. 31.0 TT = JDT 2460400.5                 MPC                     
M   5.32257              (2000.0)            P               Q                  
n   0.79688344     Peri.  144.34804     -0.94000829     +0.00777747             
a   1.1522309      Node    40.59820     -0.26085499     -0.66068721             
e   0.0837874      Incl.   31.60816     +0.21986151     -0.75062103             
P   1.24           H   24.66          G   0.15           U   8                  
Residuals in seconds of arc
240501 F52  0.3-  0.2-    240501 958  1.0-  0.4+    240502 474  0.1-  0.6-
240501 F52  0.2-  0.2-    240501 958  1.3-  0.7+    240502 474  0.1-  0.3-
240501 F52  0.2-  0.2-    240502 I52  0.2-  0.1+    240502 474  0.1-  0.7+
240501 F52  0.2+  0.0     240502 I52  0.1+  0.2-    240502 474  0.1+  0.2+
240501 F52  0.1+  0.0     240502 I52  0.2+  0.4+
240501 958  0.2-  0.0     240502 I52  0.2+  0.1-
Ephemeris:
2024 JC                  a,e,i = 1.15, 0.08, 32                  q = 1.0557
Date    TT    R. A. (2000) Decl.     Delta      r    Elong.  Phase     V
2024 04 02    17 52 40.4 +49 02 40   0.2677  1.0565    94.9    70.5    24.4
...
2024 04 17    17 00 53.4 +42 02 32   0.1426  1.0618   110.3    62.4    22.8
...
2024 04 25    15 45 23.8 +25 10 33   0.08309 1.0666   135.2    41.6    21.0
...
2024 05 01    14 06 09.4 -09 32 48   0.06404 1.0709   171.4     8.1    19.4
2024 05 02    13 46 54.0 -16 18 28   0.06526 1.0717   167.9    11.4    19.6
2024 05 03    13 27 29.9 -22 35 10   0.06779 1.0725   161.3    17.5    19.9
...
2024 05 09    11 43 25.7 -45 19 19   0.1018  1.0777   129.9    45.9    21.6
...
2024 05 17    10 22 12.0 -53 33 47   0.1667  1.0854   112.3    59.6    23.1
...
2024 06 01    09 28 13.2 -57 02 29   0.2944  1.1022    99.6    65.1    24.5
A. U. Tomatic                (C) Copyright 2024 MPC           M.P.E.C. 2024-J26
    
    
More information about the Iaude
mailing list